Terminal Aerodrome Forecast
Issued by NWS Aberdeen, SD

Home | Current Version | Previous Version | Text Only | Print | Product List | Glossary On
Versions: 1 2 3 4 5 6 7 8 9 10 11 12 13 14 15 16 17 18 19 20 21 22 23 24 25 26 27 28 29 30 31 32 33 34 35 36 37 38 39 40 41 42 43 44 45 46
000
FTAK31 PAFA 262336
TAFABR
TAF
PABR 262336Z 2700/2724 09009KT P6SM FEW090 SCT200
     FM270400 09012KT 1SM BR FEW003 SCT090 BKN200
     FM271600 09008KT 4SM BR FEW003 SCT090 BKN200=

USA.gov is the U.S. government's official web portal to all federal, state and local government web resources and services.